Latest Weather Observations for Witchcliffe

IDW60801

Issued at 12:05 pm WST Thursday 21 August 2014 (issued every 30 minutes, with the page automatically refreshed every 10 minutes)

About weather observations | Map of weather stations | Latest weather observations for WA | Other Formats
Station Details ID: 009746 Name: WITCHCLIFFE Lat: -34.03 Lon: 115.10 Height: 80.0 m
Data from the previous 72 hours. | See also: Recent months at Witchcliffe
Date/Time
WST
Temp
°C
App
Temp
°C
Dew
Point
Rel
Hum
%
Delta-T
°C
Wind Press
QNH
hPa
Press
MSL
hPa
Rain
since 9 am
mm
Dir
 
Spd
km/h
Gust
km/h
Spd
kts
Gust
kts
21/12:00pm 17.3 13.2 11.6 69 3.1 WNW 24 35 13 19 1009.1 1009.3 1.8
21/11:30am 16.0 13.3 12.9 82 1.7 NW 19 33 10 18 1009.2 - 1.6
21/11:00am 14.6 13.1 14.1 97 0.3 NW 15 24 8 13 1009.3 - 1.2
21/10:30am 13.7 11.2 13.5 99 0.1 W 19 33 10 18 1009.5 - 0.8
21/10:00am 14.5 12.8 13.5 94 0.6 W 15 28 8 15 1009.0 - 0.4
21/09:30am 15.1 13.0 13.6 91 0.8 W 17 39 9 21 1008.4 - 0.2
21/09:00am 16.4 13.4 12.4 77 2.2 NW 20 39 11 21 1007.8 1008.0 25.4
21/08:30am 16.6 13.2 10.5 67 3.3 NW 19 30 10 16 1007.5 - 25.4
21/08:00am 16.0 11.6 10.3 69 3.0 WNW 24 37 13 20 1007.2 - 25.4
21/07:30am 15.7 11.6 10.0 69 3.0 WNW 22 37 12 20 1006.7 - 25.4
21/07:00am 15.2 10.5 9.1 67 3.1 WNW 24 39 13 21 1006.2 - 25.4
21/06:30am 15.2 10.7 10.2 72 2.6 WNW 24 43 13 23 1005.7 - 25.4
21/06:00am 15.3 11.4 10.9 75 2.4 WNW 22 35 12 19 1005.4 1005.6 25.4
21/05:30am 15.6 10.5 11.8 78 2.1 WNW 30 50 16 27 1005.3 - 25.2
21/05:01am 14.9 11.2 14.9 100 0.0 WNW 28 46 15 25 1005.1 - 24.4
21/05:00am 15.0 11.3 15.0 100 0.0 WNW 28 44 15 24 1005.1 - 24.4
21/04:30am 15.8 14.5 15.8 100 0.0 WNW 17 33 9 18 1004.6 - 23.4
21/04:00am 15.8 13.9 15.8 100 0.0 NW 20 32 11 17 1004.4 - 22.4
21/03:30am 16.2 14.7 16.2 100 0.0 NNW 19 24 10 13 1004.4 - 21.6
21/03:00am 16.2 13.0 16.2 100 0.0 NNW 28 50 15 27 1004.5 1004.7 15.6
21/02:59am 16.2 13.0 16.2 100 0.0 NNW 28 50 15 27 1004.5 - 15.4
21/02:30am 16.2 13.3 16.2 100 0.0 NNW 26 39 14 21 1005.0 - 8.4
21/02:00am 15.9 12.5 15.9 100 0.0 N 28 43 15 23 1005.3 - 1.2
21/01:30am 15.9 12.2 15.9 100 0.0 N 30 41 16 22 1006.1 - 1.0
21/01:00am 15.9 11.8 15.9 100 0.0 N 32 48 17 26 1006.5 - 0.8
21/12:30am 15.8 11.1 15.8 100 0.0 N 35 46 19 25 1006.6 - 0.8
21/12:00am 15.6 11.7 15.6 100 0.0 N 30 41 16 22 1007.4 1007.6 0.6
 
Date/Time
WST
Temp
°C
App
Temp
°C
Dew
Point
Rel
Hum
%
Delta-T
°C
Wind Press
QNH
hPa
Press
MSL
hPa
Rain
since 9 am
mm
Dir
 
Spd
km/h
Gust
km/h
Spd
kts
Gust
kts
20/11:30pm 15.5 11.5 15.3 99 0.1 N 30 39 16 21 1007.8 - 0.6
20/11:00pm 15.3 11.3 15.1 99 0.1 N 30 43 16 23 1008.1 - 0.6
20/10:30pm 14.9 11.5 14.7 99 0.1 N 26 37 14 20 1008.9 - 0.6
20/10:02pm 15.3 11.2 13.7 90 0.9 N 28 46 15 25 1009.5 - 0.6
20/10:00pm 15.2 10.9 13.2 88 1.1 N 28 37 15 20 1009.5 - 0.6
20/09:30pm 15.3 11.3 13.0 86 1.3 N 26 43 14 23 1009.8 - 0.6
20/09:00pm 15.4 11.8 13.1 86 1.3 N 24 32 13 17 1010.4 1010.5 0.6
20/08:30pm 15.2 12.2 12.5 84 1.5 N 20 28 11 15 1010.6 - 0.4
20/08:00pm 14.9 12.4 12.2 84 1.5 N 17 22 9 12 1010.8 - 0.4
20/07:30pm 15.2 12.4 11.4 78 2.0 N 17 22 9 12 1011.2 - 0.4
20/07:00pm 14.7 12.6 11.1 79 1.9 N 13 17 7 9 1010.9 - 0.4
20/06:30pm 15.1 12.6 10.9 76 2.2 N 15 19 8 10 1010.8 - 0.4
20/06:00pm 15.8 13.2 10.8 72 2.7 N 15 22 8 12 1010.9 1011.0 0.4
20/05:30pm 16.3 12.9 10.6 69 3.0 N 19 24 10 13 1011.0 - 0.4
20/05:00pm 16.6 12.9 10.2 66 3.4 NNW 20 30 11 16 1011.1 - 0.4
20/04:30pm 16.9 13.2 10.1 64 3.6 N 20 28 11 15 1011.1 - 0.4
20/04:00pm 17.5 13.9 9.7 60 4.1 NW 19 28 10 15 1011.2 - 0.4
20/03:30pm 17.3 12.7 9.5 60 4.1 N 24 32 13 17 1011.1 - 0.4
20/03:00pm 17.9 13.4 10.0 60 4.2 NNW 24 32 13 17 1011.2 1011.3 0.4
20/02:30pm 18.3 13.7 9.6 57 4.6 NNW 24 37 13 20 1011.3 - 0.4
20/02:00pm 18.3 14.8 10.9 62 4.0 NNW 20 32 11 17 1011.4 - 0.4
20/01:30pm 18.1 13.7 10.5 61 4.1 NNW 24 35 13 19 1011.6 - 0.4
20/01:00pm 17.7 13.6 11.5 67 3.4 NNW 24 43 13 23 1012.1 - 0.2
20/12:30pm 17.2 12.6 11.2 68 3.3 NNW 26 41 14 22 1012.6 - 0.2
20/12:00pm 17.2 14.1 12.1 72 2.8 NNW 20 32 11 17 1013.0 1013.1 0.2
20/11:30am 15.9 14.7 14.1 89 1.0 NNW 13 22 7 12 1013.3 - 0.2
20/11:00am 15.5 11.5 11.7 78 2.1 NW 24 39 13 21 1013.6 - 0.2
20/10:30am 16.2 15.0 12.7 80 1.9 N 11 19 6 10 1013.7 - 0.0
20/10:00am 16.4 13.7 11.8 74 2.5 N 17 22 9 12 1013.9 - 0.0
20/09:30am 16.2 14.3 12.9 81 1.8 N 15 17 8 9 1013.9 - 0.0
20/09:00am 14.7 14.1 14.7 100 0.0 N 11 17 6 9 1014.2 1014.3 0.4
20/08:30am 13.0 12.2 13.0 100 0.0 N 9 13 5 7 1014.5 - 0.4
20/08:00am 12.0 11.3 12.0 100 0.0 N 7 9 4 5 1014.4 - 0.4
20/07:30am 11.5 10.3 11.5 100 0.0 N 9 13 5 7 1014.3 - 0.4
20/07:00am 10.5 9.0 10.5 100 0.0 N 9 13 5 7 1014.1 - 0.4
20/06:30am 10.1 9.0 10.1 100 0.0 N 6 7 3 4 1013.8 - 0.4
20/06:00am 11.4 10.5 11.4 100 0.0 N 7 9 4 5 1013.7 1013.8 0.4
20/05:30am 10.5 10.7 10.5 100 0.0 CALM 0 0 0 0 1013.5 - 0.4
20/05:00am 10.5 10.7 10.5 100 0.0 CALM 0 0 0 0 1013.6 - 0.2
20/04:30am 11.3 11.7 11.3 100 0.0 CALM 0 0 0 0 1013.7 - 0.2
20/04:00am 11.8 11.0 11.8 100 0.0 N 7 11 4 6 1013.9 - 0.2
20/03:30am 12.0 11.3 12.0 100 0.0 N 7 9 4 5 1014.2 - 0.2
20/03:00am 12.4 13.2 12.4 100 0.0 CALM 0 6 0 3 1014.5 1014.6 0.0
20/02:30am 11.5 12.0 11.5 100 0.0 CALM 0 0 0 0 1014.9 - 0.0
20/02:00am 10.8 11.1 10.8 100 0.0 CALM 0 0 0 0 1015.0 - 0.0
20/01:30am 11.3 11.7 11.3 100 0.0 CALM 0 0 0 0 1015.4 - 0.0
20/01:00am 11.3 11.7 11.3 100 0.0 CALM 0 0 0 0 1015.7 - 0.0
20/12:30am 11.0 10.2 11.0 100 0.0 NW 6 9 3 5 1016.0 - 0.0
20/12:00am 8.9 8.7 8.9 100 0.0 CALM 0 0 0 0 1015.9 1016.1 0.0
 
Date/Time
WST
Temp
°C
App
Temp
°C
Dew
Point
Rel
Hum
%
Delta-T
°C
Wind Press
QNH
hPa
Press
MSL
hPa
Rain
since 9 am
mm
Dir
 
Spd
km/h
Gust
km/h
Spd
kts
Gust
kts
19/11:30pm 9.2 9.0 9.2 100 0.0 CALM 0 0 0 0 1016.0 - 0.0
19/11:00pm 9.8 9.8 9.8 100 0.0 CALM 0 0 0 0 1015.9 - 0.0
19/10:30pm 9.6 9.5 9.6 100 0.0 CALM 0 0 0 0 1016.2 - 0.0
19/10:00pm 10.2 10.3 10.2 100 0.0 CALM 0 0 0 0 1016.5 - 0.0
19/09:30pm 10.3 10.4 10.1 99 0.1 CALM 0 0 0 0 1016.6 - 0.0
19/09:00pm 10.8 11.0 10.6 99 0.1 CALM 0 0 0 0 1016.7 1016.9 0.0
19/08:30pm 10.7 10.9 10.5 99 0.1 CALM 0 0 0 0 1016.6 - 0.0
19/08:00pm 11.5 11.9 11.3 99 0.1 CALM 0 0 0 0 1016.3 - 0.0
19/07:30pm 11.6 12.0 11.4 99 0.1 CALM 0 0 0 0 1016.4 - 0.0
19/07:00pm 12.5 13.1 12.0 97 0.3 CALM 0 0 0 0 1016.0 - 0.0
19/06:30pm 13.1 13.7 11.8 92 0.7 CALM 0 0 0 0 1016.0 - 0.0
19/06:00pm 14.6 15.3 12.1 85 1.4 CALM 0 0 0 0 1015.8 1016.0 0.0
19/05:30pm 15.5 14.5 12.4 82 1.7 SW 9 15 5 8 1015.8 - 0.0
19/05:00pm 16.2 14.5 12.4 78 2.1 SW 13 22 7 12 1015.8 - 0.0
19/04:30pm 17.3 14.8 12.4 73 2.7 SW 17 26 9 14 1015.6 - 0.0
19/04:00pm 17.8 14.6 11.8 68 3.3 SW 20 26 11 14 1015.4 - 0.0
19/03:30pm 18.4 17.4 12.2 67 3.4 SSW 9 15 5 8 1015.2 - 0.0
19/03:00pm 17.3 15.9 10.9 66 3.4 S 9 15 5 8 1015.1 1015.3 0.0
19/02:30pm 17.5 15.5 11.5 68 3.3 S 13 17 7 9 1015.2 - 0.0
19/02:00pm 17.4 14.7 11.7 69 3.1 S 17 22 9 12 1015.1 - 0.0
19/01:30pm 17.3 15.2 11.1 67 3.4 S 13 20 7 11 1015.4 - 0.0
19/01:00pm 18.6 17.5 13.0 70 3.2 S 11 20 6 11 1015.4 - 0.0
19/12:30pm 17.7 16.4 12.4 71 2.9 S 11 15 6 8 1015.6 - 0.0
19/12:00pm 17.3 16.0 12.4 73 2.7 S 11 15 6 8 1015.9 1016.1 0.0
19/11:30am 17.1 14.9 12.0 72 2.8 S 15 19 8 10 1016.1 - 0.0
19/11:00am 16.8 14.1 11.7 72 2.8 S 17 28 9 15 1016.3 - 0.0
19/10:30am 17.2 14.6 12.1 72 2.8 SSW 17 28 9 15 1016.3 - 0.0
19/10:00am 17.2 15.5 12.3 73 2.7 S 13 24 7 13 1016.6 - 0.0
19/09:30am 16.1 13.5 11.9 76 2.3 S 17 26 9 14 1016.6 - 0.0
19/09:00am 16.1 14.0 12.3 78 2.1 SSW 15 22 8 12 1016.6 1016.8 13.2
19/08:30am 15.2 14.0 12.7 85 1.4 SSW 11 20 6 11 1016.5 - 13.2
19/08:00am 14.8 13.7 13.0 89 1.0 S 11 20 6 11 1016.4 - 13.0
19/07:30am 14.4 13.0 12.3 87 1.1 SSW 11 17 6 9 1016.1 - 12.8
19/07:00am 14.1 13.0 12.1 88 1.1 SSW 9 15 5 8 1015.7 - 12.8
19/06:30am 14.2 12.3 11.7 85 1.3 SSW 13 19 7 10 1015.2 - 12.8
19/06:00am 14.1 13.2 11.3 83 1.5 S 7 11 4 6 1015.1 1015.3 12.6
19/05:30am 14.4 12.8 11.7 84 1.5 SSW 11 19 6 10 1014.8 - 12.6
19/05:00am 14.7 13.1 11.7 82 1.6 SSW 11 19 6 10 1014.7 - 12.6
19/04:30am 14.8 12.9 11.8 82 1.6 SSW 13 20 7 11 1014.5 - 12.6
19/04:00am 14.7 13.2 11.8 83 1.6 SSW 11 17 6 9 1014.3 - 12.6
19/03:30am 14.4 13.1 11.4 82 1.6 SW 9 15 5 8 1014.3 - 12.6
19/03:00am 13.5 11.9 10.3 81 1.7 WSW 9 15 5 8 1014.4 1014.5 12.6
19/02:30am 12.8 11.4 9.6 81 1.6 SW 7 9 4 5 1014.5 - 12.6
19/02:00am 13.0 11.7 10.0 82 1.5 SW 7 13 4 7 1014.6 - 12.6
19/01:30am 13.0 11.8 9.6 80 1.7 SW 6 9 3 5 1014.7 - 12.6
19/01:00am 13.5 12.4 9.9 79 1.9 SW 6 13 3 7 1014.6 - 12.6
19/12:30am 13.4 12.4 10.2 81 1.7 SSW 6 13 3 7 1014.5 - 12.6
19/12:00am 13.8 12.6 10.4 80 1.8 SSW 7 15 4 8 1014.4 1014.5 12.6
 
Date/Time
WST
Temp
°C
App
Temp
°C
Dew
Point
Rel
Hum
%
Delta-T
°C
Wind Press
QNH
hPa
Press
MSL
hPa
Rain
since 9 am
mm
Dir
 
Spd
km/h
Gust
km/h
Spd
kts
Gust
kts
18/11:30pm 14.1 12.2 10.5 79 1.9 SW 11 19 6 10 1014.4 - 12.6
18/11:00pm 14.1 13.2 11.3 83 1.5 SSW 7 15 4 8 1014.4 - 12.6
18/10:30pm 14.2 13.3 11.2 82 1.6 SSW 7 19 4 10 1014.2 - 12.6
18/10:00pm 14.3 12.2 11.1 81 1.7 SW 13 19 7 10 1014.3 - 12.6
18/09:30pm 13.9 11.4 11.2 84 1.4 WSW 15 19 8 10 1014.1 - 12.6
18/09:00pm 13.2 12.0 11.6 90 0.9 WSW 9 15 5 8 1013.9 1014.0 12.6
18/08:30pm 13.3 10.5 11.2 87 1.1 SW 17 24 9 13 1013.7 - 12.4
18/08:00pm 14.7 12.4 10.5 76 2.2 SW 13 20 7 11 1013.3 - 12.2
18/07:30pm 14.3 12.0 10.5 78 2.0 WSW 13 22 7 12 1012.9 - 12.2
18/07:00pm 14.1 12.1 10.3 78 2.0 WSW 11 17 6 9 1012.6 - 12.2
18/06:30pm 14.3 12.0 10.5 78 2.0 WSW 13 20 7 11 1012.1 - 12.2
18/06:00pm 14.2 12.2 10.2 77 2.1 WSW 11 17 6 9 1011.7 1011.8 12.2
18/05:30pm 14.7 12.0 10.3 75 2.3 SW 15 24 8 13 1011.3 - 11.8
18/05:00pm 15.2 12.1 10.2 72 2.6 SW 17 26 9 14 1010.9 - 11.4
18/04:30pm 15.7 12.3 10.5 71 2.8 SW 19 32 10 17 1010.6 - 11.0
18/04:00pm 15.5 11.1 10.3 71 2.7 SW 24 37 13 20 1010.1 - 10.4
18/03:30pm 15.3 11.1 11.1 76 2.2 SW 24 35 13 19 1009.8 - 9.8
18/03:00pm 15.2 12.2 12.7 85 1.4 SW 20 35 11 19 1009.3 1009.5 9.2
18/02:30pm 13.8 10.4 13.6 99 0.1 WSW 24 48 13 26 1008.8 - 8.6
18/02:00pm 14.5 11.7 14.2 98 0.2 WSW 22 41 12 22 1008.3 - 8.2
18/01:30pm 14.4 10.5 13.3 93 0.6 WSW 26 46 14 25 1007.9 - 7.8
18/01:00pm 15.2 10.5 12.1 82 1.7 W 28 52 15 28 1007.5 - 7.6
18/12:36pm 14.6 10.1 12.6 88 1.1 NW 28 46 15 25 1007.3 - 7.6
18/12:30pm 14.2 10.3 12.2 88 1.1 WNW 24 39 13 21 1007.4 - 7.2

Other Formats:

Comma delimited format used in spreadsheet applications
http://www.bom.gov.au/fwo/IDW60801/IDW60801.95641.axf

JavaScript Object Notation format (JSON) in row-major order
http://www.bom.gov.au/fwo/IDW60801/IDW60801.95641.json